Location: Newark
(42.8481°N, 0.4872°E)
Time: 08:59:12
(UTC+00:00)

A-11 Canister half - Pass Details

Date: 28 October 2020
Orbit: 1516 x 1684 km, 47.2° (Epoch: 04 December)

Event Time Altitude Azimuth Distance (km) Brightness Sun altitude
Exits shadow 03:28:13 31° 183° (S) 2,467 9.9 -33.3°
Drops below altitude 10° 03:33:15 10° 159° (SSE) 3,700 11.1 -32.4°
Sets 03:36:28 0° 152° (SSE) 4,665 11.7 -31.8°
